FLOCK 4A-9 (44098 NORAD) Tracking and Keplerian Element Data

This shows tracking and keplerian element data for the satellite.

Feedback or suggestion? Click here.




ElementValue
Catalog44098
NameFLOCK 4A-9
Epoch Orbit309
Epoch Day111.71875314
Epoch Year2019
RAAN172.1181
Inclination97.4627
Eccentricity0.0010694
Argument of Perigee216.2215
Mean Anonmoly143.8298
Mean Motion15.22055832
Decay Rate8.64E-06
L11 44098U 19018W 19111.71875314 .00000864 00000-0 40820-4 0 9999
L22 44098 97.4627 172.1181 0010694 216.2215 143.8298 15.22055832 3092

Live tracking and technical data element details for FLOCK 4A-9 (NORAD 44098). FLOCK 4A-9 can be tracked NOW for your location showing map with azimuth and elevation plus other details from your city location.

Track the satellite on the map from your city or location and see movement details for azimuth, elevation, latitude, longitude, range, height, and movement on the map or in text.







IsCatalogInMostPopularTable: catalog: 44098, numindb: 4
Update: records affected: 1



GetName: 44098 FLOCK 4A-9

Hit Count: updated at: Tue, 23 Apr 2019 02:27:06 GMT